STARLINK-11401 [DTC]

Last updated on Thu Nov 21 2024 00:02:05 GMT+0000 (Coordinated Universal Time)

1 61876U 24204C 24325.58335648 -.00540215 00000+0 -23496-2 0 9992 2 61876 53.1653 174.9541 0000568 86.6324 155.3713 15.85369020 3021
UTC large
Height (km)
Speed (km/s)
/
Latitude / Longitude
Inclination (degrees)
Orbital Period (minutes)
Azimuth
Elevation
Range (km)
Doppler Factor

Next 0 passes for location: London (51.5072 / 0.1276)

Sorry there are no passes over London.